GW0353 Weather Reports


Display with metric or nautical units.
time (UTC)temp
F
wind
direction
speed
MPH
gust
MPH
rain 1hr
in
rain 24hr
in
rain mn
in
humidity
%
barometer
mb
20260510224608 79 8 1.0 10.0 0.00 0.00 0.00 21 1024.2
20260510224054 79 34 1.0 10.0 0.00 0.00 0.00 19 1024.2
20260510223558 78 46 4.0 10.0 0.00 0.00 0.00 20 1024.2
20260510223135 78 169 1.0 15.0 0.00 0.00 0.00 19 1024.3
20260510222557 78 68 2.0 15.0 0.00 0.00 0.00 19 1024.4
20260510222057 78 109 7.0 15.0 0.00 0.00 0.00 19 1024.3
20260510221559 77 73 2.0 10.0 0.00 0.00 0.00 20 1024.5
20260510221057 77 124 3.0 10.0 0.00 0.00 0.00 20 1024.6
20260510220559 77 115 3.0 14.0 0.00 0.00 0.00 20 1024.6
20260510220108 77 129 4.0 14.0 0.00 0.00 0.00 19 1024.6
20260510215559 77 99 6.0 13.0 0.00 0.00 0.00 20 1024.8
20260510215058 77 77 5.0 13.0 0.00 0.00 0.00 19 1024.8
20260510214600 78 47 1.0 13.0 0.00 0.00 0.00 20 1024.9
20260510214058 76 105 5.0 13.0 0.00 0.00 0.00 20 1024.8
20260510213559 77 82 6.0 11.0 0.00 0.00 0.00 21 1024.7
20260510213124 77 164 3.0 11.0 0.00 0.00 0.00 19 1024.8
20260510212559 76 139 5.0 16.0 0.00 0.00 0.00 20 1024.9
20260510212058 76 115 6.0 16.0 0.00 0.00 0.00 20 1024.9
20260510211611 77 63 4.0 16.0 0.00 0.00 0.00 20 1024.9
20260510211057 77 143 6.0 16.0 0.00 0.00 0.00 20 1025.0
20260510210601 76 107 4.0 13.0 0.00 0.00 0.00 20 1025.0
20260510210058 76 98 7.0 13.0 0.00 0.00 0.00 21 1025.1
20260510205559 76 57 4.0 13.0 0.00 0.00 0.00 19 1025.0
20260510205059 76 191 2.0 15.0 0.00 0.00 0.00 20 1025.0
20260510204602 75 93 8.0 16.0 0.00 0.00 0.00 20 1025.1
20260510204058 75 134 10.0 16.0 0.00 0.00 0.00 20 1025.0
20260510203558 76 226 2.0 14.0 0.00 0.00 0.00 20 1025.1
20260510203100 75 136 3.0 15.0 0.00 0.00 0.00 20 1025.1
20260510202559 76 56 5.0 15.0 0.00 0.00 0.00 19 1025.1
20260510202058 76 51 2.0 14.0 0.00 0.00 0.00 21 1025.2
20260510201558 75 338 6.0 14.0 0.00 0.00 0.00 19 1025.2
20260510201058 75 119 6.0 15.0 0.00 0.00 0.00 20 1025.3
20260510200558 75 91 8.0 15.0 0.00 0.00 0.00 21 1025.3
20260510200100 75 78 4.0 12.0 0.00 0.00 0.00 21 1025.4
20260510195601 75 81 6.0 13.0 0.00 0.00 0.00 19 1025.5
20260510195058 74 91 5.0 15.0 0.00 0.00 0.00 21 1025.6
20260510194559 74 101 7.0 15.0 0.00 0.00 0.00 20 1025.8
20260510194058 75 107 5.0 14.0 0.00 0.00 0.00 20 1025.7
20260510193558 74 86 5.0 15.0 0.00 0.00 0.00 21 1025.8
20260510193101 74 88 8.0 19.0 0.00 0.00 0.00 21 1025.7
20260510192558 74 98 6.0 19.0 0.00 0.00 0.00 20 1025.7
20260510192059 74 54 8.0 19.0 0.00 0.00 0.00 21 1025.9
20260510191556 74 151 5.0 16.0 0.00 0.00 0.00 21 1025.8
20260510191059 73 70 7.0 16.0 0.00 0.00 0.00 21 1025.8
20260510190559 74 185 7.0 16.0 0.00 0.00 0.00 21 1025.9
20260510190100 73 113 7.0 13.0 0.00 0.00 0.00 20 1026.0
20260510185600 74 94 4.0 12.0 0.00 0.00 0.00 20 1025.8
20260510185059 73 127 6.0 13.0 0.00 0.00 0.00 21 1025.9
20260510184559 73 140 6.0 13.0 0.00 0.00 0.00 20 1026.0
20260510184058 73 58 5.0 14.0 0.00 0.00 0.00 22 1026.0
20260510183558 73 121 6.0 14.0 0.00 0.00 0.00 20 1025.9
20260510183104 73 66 3.0 12.0 0.00 0.00 0.00 20 1026.0
20260510182602 73 148 6.0 15.0 0.00 0.00 0.00 21 1026.0
20260510182058 73 150 6.0 15.0 0.00 0.00 0.00 20 1025.9
20260510181631 73 80 7.0 12.0 0.00 0.00 0.00 20 1026.0
20260510181059 73 103 6.0 13.0 0.00 0.00 0.00 20 1026.0
20260510180559 73 82 4.0 13.0 0.00 0.00 0.00 20 1026.2
20260510180110 73 144 6.0 13.0 0.00 0.00 0.00 19 1026.0
20260510175602 74 20 3.0 11.0 0.00 0.00 0.00 20 1026.0
20260510175058 73 0 2.0 8.0 0.00 0.00 0.00 23 1026.1
20260510174602 72 50 4.0 8.0 0.00 0.00 0.00 23 1026.1
20260510174058 73 60 1.0 5.0 0.00 0.00 0.00 24 1026.2
20260510173601 72 311 1.0 4.0 0.00 0.00 0.00 22 1026.2
20260510173058 71 0 1.0 5.0 0.00 0.00 0.00 23 1026.1
20260510172558 70 309 1.0 5.0 0.00 0.00 0.00 24 1026.3
20260510172058 69 19 2.0 5.0 0.00 0.00 0.00 25 1026.3
20260510171558 69 59 3.0 5.0 0.00 0.00 0.00 24 1026.2
20260510171059 69 46 1.0 3.0 0.00 0.00 0.00 26 1026.2
20260510170559 68 335 1.0 4.0 0.00 0.00 0.00 26 1026.2
20260510170059 67 285 2.0 4.0 0.00 0.00 0.00 28 1026.4
20260510165601 67 55 2.0 4.0 0.00 0.00 0.00 27 1026.3
20260510165059 67 60 1.0 3.0 0.00 0.00 0.00 28 1026.4
20260510164559 66 329 1.0 3.0 0.00 0.00 0.00 29 1026.4
20260510164100 64 19 1.0 5.0 0.00 0.00 0.00 31 1026.4
20260510163559 63 0 1.0 5.0 0.00 0.00 0.00 30 1026.6
20260510163100 62 74 2.0 5.0 0.00 0.00 0.00 33 1026.4
20260510162558 62 46 1.0 5.0 0.00 0.00 0.00 33 1026.6
20260510162059 61 53 2.0 5.0 0.00 0.00 0.00 35 1026.6
20260510161558 60 36 2.0 5.0 0.00 0.00 0.00 35 1026.7
20260510161059 60 46 3.0 5.0 0.00 0.00 0.00 36 1026.6
20260510160559 59 0 2.0 4.0 0.00 0.00 0.00 38 1026.6
20260510160104 58 58 3.0 4.0 0.00 0.00 0.00 39 1026.7
20260510155559 58 53 1.0 3.0 0.00 0.00 0.00 39 1026.7
20260510155059 57 66 1.0 3.0 0.00 0.00 0.00 38 1026.6
20260510154604 57 59 1.0 3.0 0.00 0.00 0.00 41 1026.7
20260510154102 56 56 1.0 3.0 0.00 0.00 0.00 42 1026.7
20260510153557 56 315 0.0 3.0 0.00 0.00 0.00 45 1026.7
20260510153108 55 63 1.0 3.0 0.00 0.00 0.00 47 1026.8
20260510152602 54 0 1.0 3.0 0.00 0.00 0.00 48 1026.8
20260510152100 53 63 1.0 3.0 0.00 0.00 0.00 49 1026.9
20260510151608 52 58 1.0 3.0 0.00 0.00 0.00 50 1026.8
20260510151100 52 57 1.0 3.0 0.00 0.00 0.00 51 1026.8
20260510150600 52 60 1.0 3.0 0.00 0.00 0.00 54 1026.8
20260510150105 51 46 1.0 2.0 0.00 0.00 0.00 57 1026.6
20260510145559 50 64 0.0 1.0 0.00 0.00 0.00 60 1026.7
20260510145059 49 75 0.0 1.0 0.00 0.00 0.00 61 1026.7
20260510144601 49 79 0.0 1.0 0.00 0.00 0.00 60 1026.7
20260510144059 49 92 0.0 1.0 0.00 0.00 0.00 62 1026.6
20260510143559 48 0 0.0 1.0 0.00 0.00 0.00 63 1026.6
20260510143112 47 92 0.0 1.0 0.00 0.00 0.00 64 1026.7
20260510142558 47 0 0.0 0.0 0.00 0.00 0.00 63 1026.5
20260510142058 47 0 0.0 0.0 0.00 0.00 0.00 64 1026.5
20260510141602 47 0 0.0 0.0 0.00 0.00 0.00 64 1026.6
20260510141100 46 0 0.0 0.0 0.00 0.00 0.00 63 1026.4
20260510140558 46 0 0.0 0.0 0.00 0.00 0.00 64 1026.5
20260510140110 46 0 0.0 0.0 0.00 0.00 0.00 64 1026.4
20260510135558 44 0 0.0 0.0 0.00 0.00 0.00 68 1026.3
20260510135103 42 0 0.0 0.0 0.00 0.00 0.00 70 1026.4
20260510134607 39 0 0.0 0.0 0.00 0.00 0.00 72 1026.2
20260510134058 38 0 0.0 0.0 0.00 0.00 0.00 74 1026.2
20260510133558 38 0 0.0 0.0 0.00 0.00 0.00 74 1026.1
20260510133102 37 0 0.0 0.0 0.00 0.00 0.00 74 1026.2
20260510132559 37 0 0.0 0.0 0.00 0.00 0.00 73 1026.2
20260510132059 37 0 0.0 0.0 0.00 0.00 0.00 72 1026.0
20260510131600 37 0 0.0 1.0 0.00 0.00 0.00 72 1026.0
20260510131059 37 0 0.0 1.0 0.00 0.00 0.00 72 1025.9
20260510130558 37 177 0.0 0.0 0.00 0.00 0.00 70 1026.0
20260510130058 37 0 0.0 0.0 0.00 0.00 0.00 71 1025.8
20260510125632 37 0 0.0 0.0 0.00 0.00 0.00 72 1026.0
20260510125059 37 0 0.0 0.0 0.00 0.00 0.00 71 1025.9
20260510124559 37 0 0.0 0.0 0.00 0.00 0.00 72 1025.9
20260510124059 37 0 0.0 0.0 0.00 0.00 0.00 72 1025.8
20260510123559 37 0 0.0 0.0 0.00 0.00 0.00 71 1025.8
20260510123100 37 0 0.0 0.0 0.00 0.00 0.00 70 1025.8
20260510122559 38 148 0.0 0.0 0.00 0.00 0.00 71 1025.8
20260510122058 38 0 0.0 0.0 0.00 0.00 0.00 72 1026.0
20260510121603 38 0 0.0 0.0 0.00 0.00 0.00 72 1025.8
20260510121059 38 0 0.0 1.0 0.00 0.00 0.00 72 1025.9
20260510120559 38 0 0.0 1.0 0.00 0.00 0.00 70 1025.9
20260510120056 38 185 0.0 0.0 0.00 0.00 0.00 68 1025.9
20260510115558 39 0 0.0 0.0 0.00 0.00 0.00 67 1026.0
20260510115059 40 0 0.0 0.0 0.00 0.00 0.00 66 1026.0
20260510114559 40 0 0.0 0.0 0.00 0.00 0.00 67 1025.7
20260510114059 40 0 0.0 2.0 0.00 0.00 0.00 67 1025.8
20260510113601 40 0 0.0 2.0 0.00 0.00 0.00 66 1025.8
20260510113058 39 184 1.0 2.0 0.00 0.00 0.00 67 1025.8
20260510112558 40 0 0.0 1.0 0.00 0.00 0.00 65 1025.8
20260510112055 40 0 0.0 1.0 0.00 0.00 0.00 65 1025.6
20260510111557 40 0 0.0 0.0 0.00 0.00 0.00 71 1025.5
20260510111057 40 0 0.0 0.0 0.00 0.00 0.00 69 1025.4
20260510110559 40 0 0.0 0.0 0.00 0.00 0.00 64 1025.5
20260510105559 40 0 0.0 0.0 0.00 0.00 0.00 63 1025.3
20260510105059 41 0 0.0 1.0 0.00 0.00 0.00 62 1025.3
20260510104559 41 0 0.0 2.0 0.00 0.00 0.00 63 1025.2
20260510104100 41 0 0.0 2.0 0.00 0.00 0.00 61 1025.2
20260510103558 42 0 0.0 2.0 0.00 0.00 0.00 60 1025.2
20260510103056 42 0 0.0 0.0 0.00 0.00 0.00 65 1025.2
20260510102558 42 0 0.0 0.0 0.00 0.00 0.00 65 1025.2
20260510102059 42 0 0.0 0.0 0.00 0.00 0.00 62 1025.2
20260510101604 42 0 0.0 0.0 0.00 0.00 0.00 60 1025.3
20260510101100 42 0 0.0 2.0 0.00 0.00 0.00 60 1025.3
20260510100559 42 0 0.0 2.0 0.00 0.00 0.00 62 1025.5
20260510100132 42 179 0.0 2.0 0.00 0.00 0.00 57 1025.5
20260510095605 42 0 0.0 1.0 0.00 0.00 0.00 58 1025.5
20260510095135 42 0 0.0 0.0 0.00 0.00 0.00 56 1025.3
20260510094559 43 0 0.0 0.0 0.00 0.00 0.00 56 1025.3
20260510094059 43 0 0.0 0.0 0.00 0.00 0.00 57 1025.3
20260510093558 44 0 0.0 0.0 0.00 0.00 0.00 54 1025.3
20260510093102 44 0 0.0 1.0 0.00 0.00 0.00 54 1025.3
20260510092558 45 0 0.0 1.0 0.00 0.00 0.00 52 1025.3
20260510092100 45 0 0.0 1.0 0.00 0.00 0.00 54 1025.2
20260510091559 45 0 0.0 1.0 0.00 0.00 0.00 52 1025.4
20260510091058 45 0 0.0 1.0 0.00 0.00 0.00 50 1025.3
20260510090559 45 0 0.0 1.0 0.00 0.00 0.00 50 1025.2
20260510090111 46 200 0.0 1.0 0.00 0.00 0.00 51 1025.3
20260510085559 46 229 0.0 1.0 0.00 0.00 0.00 51 1025.3
20260510085059 46 236 0.0 1.0 0.00 0.00 0.00 51 1025.3
20260510084556 46 0 0.0 1.0 0.00 0.00 0.00 51 1025.3
20260510084058 47 0 0.0 3.0 0.00 0.00 0.00 50 1025.3
20260510083558 46 0 0.0 3.0 0.00 0.00 0.00 51 1025.3
20260510083102 46 0 1.0 3.0 0.00 0.00 0.00 49 1025.4
20260510082558 46 173 0.0 1.0 0.00 0.00 0.00 50 1025.3
20260510082058 47 0 0.0 1.0 0.00 0.00 0.00 49 1025.3
20260510081557 47 0 0.0 2.0 0.00 0.00 0.00 54 1025.3
20260510081058 47 0 0.0 2.0 0.00 0.00 0.00 55 1025.3
20260510080558 47 193 0.0 1.0 0.00 0.00 0.00 49 1025.3
20260510080100 47 0 0.0 0.0 0.00 0.00 0.00 51 1025.3
20260510075557 48 0 0.0 1.0 0.00 0.00 0.00 50 1025.3
20260510075058 48 0 0.0 1.0 0.00 0.00 0.00 51 1025.2
20260510074558 48 0 0.0 3.0 0.00 0.00 0.00 51 1025.1
20260510074059 48 0 0.0 3.0 0.00 0.00 0.00 51 1025.3
20260510073558 49 167 0.0 1.0 0.00 0.00 0.00 48 1025.2
20260510073102 49 0 0.0 3.0 0.00 0.00 0.00 48 1025.1
20260510072558 49 0 0.0 3.0 0.00 0.00 0.00 49 1025.2
20260510072058 49 141 0.0 2.0 0.00 0.00 0.00 45 1025.3
20260510071601 49 191 0.0 2.0 0.00 0.00 0.00 44 1025.2
20260510071058 50 0 0.0 2.0 0.00 0.00 0.00 45 1025.2
20260510070558 49 203 0.0 1.0 0.00 0.00 0.00 45 1025.3
20260510070101 49 0 0.0 1.0 0.00 0.00 0.00 45 1025.1
20260510065558 49 181 0.0 1.0 0.00 0.00 0.00 44 1025.2
20260510065058 49 0 0.0 2.0 0.00 0.00 0.00 44 1025.3
20260510064604 49 259 0.0 2.0 0.00 0.00 0.00 45 1025.2
20260510064057 49 0 0.0 2.0 0.00 0.00 0.00 46 1025.2
20260510063558 49 0 0.0 2.0 0.00 0.00 0.00 47 1025.2
20260510063059 50 0 0.0 2.0 0.00 0.00 0.00 45 1025.2
20260510062557 50 0 0.0 2.0 0.00 0.00 0.00 44 1025.2
20260510062100 50 0 0.0 1.0 0.00 0.00 0.00 42 1025.1
20260510061556 50 176 0.0 2.0 0.00 0.00 0.00 43 1024.9
20260510061057 50 0 0.0 2.0 0.00 0.00 0.00 45 1024.9
20260510060559 50 0 0.0 1.0 0.00 0.00 0.00 43 1024.9
20260510060100 51 0 0.0 2.0 0.00 0.00 0.00 41 1025.0
20260510055558 51 249 0.0 2.0 0.00 0.00 0.00 44 1024.9
20260510055058 52 0 0.0 2.0 0.00 0.00 0.00 45 1024.9
20260510054558 51 0 0.0 1.0 0.00 0.00 0.00 43 1024.9
20260510054057 52 0 0.0 1.0 0.00 0.00 0.00 41 1024.9
20260510053558 53 0 0.0 1.0 0.00 0.00 0.00 39 1024.9
20260510053056 52 233 0.0 0.0 0.00 0.00 0.00 38 1025.0
20260510052600 53 0 0.0 0.0 0.00 0.00 0.00 37 1024.9
20260510052100 53 0 0.0 2.0 0.00 0.00 0.00 37 1025.0
20260510051559 53 0 0.0 2.0 0.00 0.00 0.00 37 1025.1
20260510051057 54 0 0.0 2.0 0.00 0.00 0.00 35 1024.9
20260510050557 54 231 0.0 1.0 0.00 0.00 0.00 36 1024.9
20260510050058 54 0 0.0 1.0 0.00 0.00 0.00 36 1024.9
20260510045558 55 0 0.0 1.0 0.00 0.00 0.00 34 1024.9
20260510045058 55 0 0.0 1.0 0.00 0.00 0.00 33 1024.9
20260510044558 55 0 0.0 3.0 0.00 0.00 0.00 32 1024.8
20260510044059 56 0 0.0 5.0 0.00 0.00 0.00 33 1024.6
20260510043558 56 219 2.0 5.0 0.00 0.00 0.00 32 1024.6
20260510043100 57 0 0.0 1.0 0.00 0.00 0.00 32 1024.6
20260510042602 57 0 0.0 2.0 0.00 0.00 0.00 32 1024.4
20260510042058 57 0 0.0 3.0 0.00 0.00 0.00 31 1024.3
20260510041558 58 165 2.0 3.0 0.00 0.00 0.00 29 1024.3
20260510041057 58 173 0.0 2.0 0.00 0.00 0.00 28 1024.2
20260510040557 58 0 0.0 2.0 0.00 0.00 0.00 28 1024.1
20260510040104 59 170 1.0 2.0 0.00 0.00 0.00 29 1024.0
20260510035555 59 217 1.0 2.0 0.00 0.00 0.00 28 1024.0
20260510035057 60 188 0.0 2.0 0.00 0.00 0.00 28 1023.9
20260510034604 60 0 0.0 3.0 0.00 0.00 0.00 28 1023.9
20260510034058 61 169 0.0 3.0 0.00 0.00 0.00 27 1023.7
20260510033556 62 0 0.0 3.0 0.00 0.00 0.00 26 1023.6
20260510033115 62 255 1.0 3.0 0.00 0.00 0.00 26 1023.6
20260510032559 62 0 1.0 3.0 0.00 0.00 0.00 26 1023.4
20260510032101 61 0 1.0 3.0 0.00 0.00 0.00 27 1023.4
20260510031600 62 168 1.0 3.0 0.00 0.00 0.00 27 1023.3
20260510031059 63 191 1.0 3.0 0.00 0.00 0.00 25 1023.2
20260510030557 63 0 0.0 2.0 0.00 0.00 0.00 25 1023.1
20260510030058 64 180 0.0 2.0 0.00 0.00 0.00 26 1023.1
20260510025557 65 0 0.0 2.0 0.00 0.00 0.00 25 1022.9
20260510025058 67 180 0.0 2.0 0.00 0.00 0.00 24 1022.9
20260510024602 68 220 0.0 5.0 0.00 0.00 0.00 21 1022.8
20260510024057 68 120 1.0 6.0 0.00 0.00 0.00 20 1022.8
20260510023558 69 38 2.0 6.0 0.00 0.00 0.00 20 1022.8
20260510023057 69 0 0.0 6.0 0.00 0.00 0.00 21 1022.7
20260510022557 70 70 2.0 6.0 0.00 0.00 0.00 20 1022.6
20260510022059 70 11 1.0 6.0 0.00 0.00 0.00 20 1022.6
20260510021557 70 315 2.0 6.0 0.00 0.00 0.00 20 1022.6
20260510021057 70 34 3.0 11.0 0.00 0.00 0.00 20 1022.6
20260510020602 71 80 3.0 11.0 0.00 0.00 0.00 19 1022.6
20260510020100 71 80 5.0 13.0 0.00 0.00 0.00 19 1022.6
20260510015557 71 41 5.0 13.0 0.00 0.00 0.00 19 1022.4
20260510015057 71 48 4.0 10.0 0.00 0.00 0.00 20 1022.5
20260510014557 72 39 4.0 10.0 0.00 0.00 0.00 19 1022.4
20260510014057 72 47 1.0 4.0 0.00 0.00 0.00 19 1022.4
20260510013558 73 43 1.0 9.0 0.00 0.00 0.00 20 1022.3
20260510013059 73 48 2.0 9.0 0.00 0.00 0.00 19 1022.2
20260510012601 73 76 2.0 7.0 0.00 0.00 0.00 19 1022.2
20260510012058 73 48 2.0 9.0 0.00 0.00 0.00 20 1022.3
20260510011612 73 51 2.0 9.0 0.00 0.00 0.00 20 1022.3
20260510011057 73 43 4.0 9.0 0.00 0.00 0.00 20 1022.2
20260510010555 73 56 3.0 8.0 0.00 0.00 0.00 21 1022.3
20260510010103 73 32 4.0 8.0 0.00 0.00 0.00 20 1022.4
20260510005558 73 97 1.0 12.0 0.00 0.00 0.00 21 1022.4
20260510005057 73 11 4.0 12.0 0.00 0.00 0.00 21 1022.3
20260510004600 74 55 5.0 12.0 0.00 0.00 0.00 20 1022.4
20260510004100 74 95 1.0 11.0 0.00 0.00 0.00 21 1022.4
20260510003558 74 116 3.0 8.0 0.00 0.00 0.00 20 1022.4
20260510003116 74 0 3.0 10.0 0.00 0.00 0.00 20 1022.4
20260510002557 74 85 5.0 10.0 0.00 0.00 0.00 20 1022.4
20260510002058 74 167 4.0 8.0 0.00 0.00 0.00 19 1022.4
20260510001556 75 219 2.0 8.0 0.00 0.00 0.00 20 1022.4
20260510001058 75 0 0.0 8.0 0.00 0.00 0.00 20 1022.4
20260510000600 74 120 1.0 8.0 0.00 0.00 0.00 20 1022.4
20260509235557 74 86 3.0 10.0 0.00 0.00 0.00 20 1022.5
20260509235057 74 106 6.0 11.0 0.00 0.00 0.00 20 1022.4
20260509234611 75 67 6.0 11.0 0.00 0.00 0.00 20 1022.4
20260509234057 74 168 2.0 11.0 0.00 0.00 0.00 20 1022.5
20260509233558 74 177 6.0 17.0 0.00 0.00 0.00 21 1022.5
20260509233057 74 122 5.0 17.0 0.00 0.00 0.00 21 1022.3
20260509232557 74 46 0.0 13.0 0.00 0.00 0.00 21 1022.4
20260509232058 74 122 6.0 13.0 0.00 0.00 0.00 20 1022.5
20260509231557 74 96 7.0 13.0 0.00 0.00 0.00 21 1022.5
20260509231057 74 143 3.0 12.0 0.00 0.00 0.00 20 1022.4
20260509230557 75 143 4.0 12.0 0.00 0.00 0.00 21 1022.6
20260509230108 75 110 1.0 5.0 0.00 0.00 0.00 21 1022.5
20260509225557 76 345 1.0 5.0 0.00 0.00 0.00 21 1022.6
20260509225057 76 77 2.0 12.0 0.00 0.00 0.00 20 1022.5